Weather reports worldwide

Advertisment
Koivu-Mankkaa, Finland (2985): temperature & dewpoint: 07.12.2018 11:00:00 - 13.12.2018 11:00:00 (EET)Koivu-Mankkaa, Finland (2985): wind speed & gusts: 07.12.2018 11:00:00 - 13.12.2018 11:00:00 (EET)Koivu-Mankkaa, Finland (2985): wind direction: 07.12.2018 11:00:00 - 13.12.2018 11:00:00 (EET)Koivu-Mankkaa, Finland (2985): reduced air pressure: 07.12.2018 11:00:00 - 13.12.2018 11:00:00 (EET)Koivu-Mankkaa, Finland (2985): visibility: 07.12.2018 11:00:00 - 13.12.2018 11:00:00 (EET)Koivu-Mankkaa, Finland (2985): precipitation: 07.12.2018 11:00:00 - 13.12.2018 11:00:00 (EET)
Date & Time tt [°C] td [°C] ff [km/h] ff [kn] fx [km/h] fx [kn] dd ppp [hPa] vv [km] rr [mm]
13.12.2018 11:00:00 -1,4 -4,5 14 8 - - NNE 1033,9 36 0,0
13.12.2018 10:00:00 -1,4 -4,7 14 7 27 15 NE 1033,5 44 0,0
13.12.2018 09:00:00 -1,3 -4,7 18 10 29 16 NE 1033,1 43 0,0
13.12.2018 08:00:00 -1,1 -4,4 16 9 31 17 NNE 1032,8 39 0,0
13.12.2018 07:00:00 -1,1 -4,3 15 8 31 17 NNE 1032,5 41 0,0
13.12.2018 06:00:00 -1,1 -4,2 16 9 31 17 NNE 1032,5 39 0,0
13.12.2018 05:00:00 -1,6 -4,1 11 6 25 13 NNE 1032,3 43 0,0
13.12.2018 04:00:00 -1,7 -4,0 11 6 23 12 NNE 1032,2 38 0,0
13.12.2018 03:00:00 -1,7 -3,9 11 6 21 12 NNE 1032,0 37 0,0
13.12.2018 02:00:00 -1,4 -3,6 13 7 25 13 NNE 1032,1 33 0,0
13.12.2018 01:00:00 -1,1 -3,4 13 7 25 14 NNE 1031,8 37 0,0
13.12.2018 00:00:00 -1,0 -3,6 15 8 29 16 N 1031,6 39 0,0
12.12.2018 23:00:00 -0,4 -3,7 16 8 30 16 NNE 1031,6 32 0,0
12.12.2018 22:00:00 -0,1 -4,1 15 8 25 13 N 1031,3 42 0,0
12.12.2018 21:00:00 -0,2 -4,1 14 8 21 12 N 1031,0 35 0,0
12.12.2018 20:00:00 -0,1 -4,6 11 6 33 18 NNE 1030,8 43 0,0
12.12.2018 19:00:00 0,0 -3,7 18 10 32 17 NE 1030,6 34 0,0
12.12.2018 18:00:00 0,2 -3,6 16 9 31 17 NE 1030,2 35 0,0
12.12.2018 17:00:00 0,3 -2,3 15 8 25 13 NNE 1029,8 30 0,0
12.12.2018 16:00:00 0,3 -1,7 9 5 19 11 NNE 1029,3 27 0,0
12.12.2018 15:00:00 0,2 -1,4 11 6 19 10 N 1028,8 18 0,0
12.12.2018 14:00:00 0,2 -1,5 7 4 21 11 N 1028,7 16 0,0
12.12.2018 13:00:00 0,1 -1,6 13 7 - - NNW 1028,5 12 0,0
12.12.2018 12:00:00 0,2 -2,2 11 6 - - N 1028,4 21 0,0
12.12.2018 11:00:00 -0,1 -2,9 8 5 20 11 NNE 1027,9 28 0,0
12.12.2018 10:00:00 -0,6 -3,2 8 4 36 19 NNE 1027,3 28 0,0
12.12.2018 09:00:00 -0,4 -2,9 9 5 19 11 NNE 1026,7 28 0,0
12.12.2018 08:00:00 -0,7 -3,4 14 8 28 15 NNE 1026,3 35 0,0
12.12.2018 07:00:00 0,6 -2,2 13 7 27 15 NNE 1025,7 29 0,0
12.12.2018 06:00:00 0,8 -1,7 11 6 28 15 NNE 1024,7 14 0,0
12.12.2018 05:00:00 0,8 -0,9 13 7 20 11 N 1024,1 28 0,0
12.12.2018 04:00:00 0,7 -0,9 8 4 14 8 N 1024,0 26 0,0
12.12.2018 03:00:00 0,8 -0,9 9 5 21 12 NE 1023,2 30 0,0
12.12.2018 02:00:00 0,9 -0,4 10 6 19 10 ENE 1022,4 23 0,0
12.12.2018 01:00:00 0,8 -0,2 6 4 11 6 NNE 1022,2 10 0,0
12.12.2018 00:00:00 0,8 -0,4 4 2 14 7 N 1021,5 31 0,0
11.12.2018 23:00:00 0,9 -0,5 8 4 19 11 NNE 1021,0 28 0,0
11.12.2018 22:00:00 1,0 -0,5 10 5 22 12 NNE 1020,6 34 0,0
11.12.2018 21:00:00 1,1 -0,5 12 6 32 17 N 1020,1 41 0,0
11.12.2018 20:00:00 0,9 -0,8 13 7 34 19 NNE 1019,4 40 0,0
11.12.2018 19:00:00 0,7 -1,0 14 8 29 16 N 1018,7 44 0,0
11.12.2018 18:00:00 0,7 -1,1 14 8 29 16 N 1018,1 37 0,0
11.12.2018 17:00:00 0,8 -0,7 18 10 29 16 N 1017,5 41 0,0
11.12.2018 16:00:00 1,1 -0,4 16 8 31 17 N 1016,6 37 0,0
11.12.2018 15:00:00 1,5 -0,1 11 6 29 16 NNE 1015,7 31 0,0
11.12.2018 14:00:00 1,8 0,0 17 9 36 19 NNE 1015,2 28 0,0
11.12.2018 13:00:00 1,6 0,0 16 9 29 16 NNE 1014,6 29 0,0
11.12.2018 12:00:00 1,5 0,0 14 7 30 16 NNE 1014,0 23 0,0
11.12.2018 11:00:00 1,5 0,1 11 6 29 16 NNE 1013,3 21 0,0
11.12.2018 10:00:00 1,4 0,1 14 8 24 13 NNE 1012,4 19 0,0
11.12.2018 09:00:00 1,3 0,1 11 6 24 13 NE 1011,5 14 0,0
11.12.2018 08:00:00 1,3 0,3 14 8 24 13 NE 1010,8 13 0,0
11.12.2018 07:00:00 1,0 0,1 13 7 24 13 NE 1009,9 14 0,0
11.12.2018 06:00:00 0,8 0,0 15 8 25 13 NE 1009,2 12 0,0
11.12.2018 05:00:00 0,6 -0,2 15 8 27 14 NE 1008,6 16 0,0
11.12.2018 04:00:00 0,4 -0,3 16 8 26 14 NE 1008,0 13 0,0
11.12.2018 03:00:00 0,6 0,1 16 9 28 15 NE 1007,0 7 0,0
11.12.2018 02:00:00 0,7 0,3 16 9 27 14 NE 1006,0 4,9 0,4
11.12.2018 01:00:00 0,8 0,4 16 8 27 14 NE 1005,3 2,9 0,4
11.12.2018 00:00:00 1,0 0,6 14 7 24 13 ENE 1004,5 3,1 0,2
10.12.2018 23:00:00 1,2 0,9 11 6 26 14 ENE 1003,5 5 0,4
10.12.2018 22:00:00 0,6 0,2 13 7 24 13 NE 1002,7 2,4 0,5
10.12.2018 21:00:00 1,9 1,2 14 8 25 14 E 1001,7 8 0,8
10.12.2018 20:00:00 2,2 1,3 11 6 29 16 E 1001,0 15 0,2
10.12.2018 19:00:00 2,2 1,3 11 6 33 18 E 1000,1 22 0,2
10.12.2018 18:00:00 2,2 1,3 14 8 29 15 E 999,4 17 0,2
10.12.2018 17:00:00 2,5 1,4 13 7 27 15 E 998,5 14 0,2
10.12.2018 16:00:00 2,5 1,3 12 6 27 14 ESE 997,9 14 0,1
10.12.2018 15:00:00 2,7 1,2 13 7 27 15 ESE 997,2 15 0,0
10.12.2018 14:00:00 2,7 1,3 12 6 23 12 ESE 996,3 19 0,1
10.12.2018 13:00:00 2,5 1,7 11 6 26 14 E 995,8 11 0,0
10.12.2018 12:00:00 3,0 1,3 11 6 23 13 ESE 995,6 18 0,0
10.12.2018 11:00:00 3,0 1,1 14 7 28 15 ESE 995,1 21 0,0
10.12.2018 10:00:00 3,2 1,4 16 9 30 16 SE 994,5 25 0,0
10.12.2018 09:00:00 3,3 1,4 16 9 29 16 SE 994,0 29 0,0
10.12.2018 08:00:00 3,2 1,8 18 10 32 18 SE 993,5 20 0,2
10.12.2018 07:00:00 3,3 1,8 16 9 29 16 SE 993,2 13 0,0
10.12.2018 06:00:00 3,4 1,5 14 7 29 16 SE 993,0 31 0,0
10.12.2018 05:00:00 3,5 1,6 16 8 30 16 SSE 992,8 30 0,0
10.12.2018 04:00:00 3,5 1,7 14 7 27 14 SE 992,6 30 0,0
10.12.2018 03:00:00 3,5 1,7 14 8 28 15 SE 992,7 30 0,0
10.12.2018 02:00:00 3,6 1,8 15 8 31 17 SSE 992,7 28 0,0
10.12.2018 01:00:00 3,5 1,8 16 8 29 16 SSE 992,8 25 0,0
10.12.2018 00:00:00 3,6 1,9 16 9 31 17 SSE 992,5 22 0,0
09.12.2018 23:00:00 3,6 2,1 16 9 32 17 SSE 992,6 16 0,0
09.12.2018 22:00:00 3,5 1,9 18 10 33 18 SSE 992,2 17 0,0
09.12.2018 21:00:00 3,8 2,1 21 12 37 20 SSE 992,0 17 0,0
09.12.2018 20:00:00 3,9 2,2 21 12 42 23 S 991,8 19 0,0
09.12.2018 19:00:00 4,2 2,4 23 12 43 23 S 991,5 20 0,0
09.12.2018 18:00:00 4,3 2,5 23 12 47 26 S 991,3 22 0,0
09.12.2018 17:00:00 4,2 2,8 23 13 44 24 S 991,1 21 0,0
09.12.2018 16:00:00 4,4 2,6 23 13 49 26 S 990,7 31 0,0
09.12.2018 15:00:00 4,4 2,7 29 16 53 29 S 990,4 36 0,0
09.12.2018 14:00:00 4,5 2,9 28 15 54 29 S 990,1 25 0,0
09.12.2018 13:00:00 4,5 2,8 29 15 50 27 S 990,0 27 0,0
09.12.2018 12:00:00 4,3 2,7 29 16 55 30 S 989,8 30 0,1
09.12.2018 11:00:00 4,1 2,9 27 15 51 27 S 989,7 20 0,5
09.12.2018 10:00:00 4,1 2,8 27 15 50 27 SSE 989,4 14 0,1
09.12.2018 09:00:00 4,2 2,7 29 16 58 32 SSE 989,2 21 0,0
09.12.2018 08:00:00 4,2 2,5 31 17 56 31 SSE 989,1 24 0,0
09.12.2018 07:00:00 4,3 2,7 31 17 51 27 SSE 988,9 21 0,0
09.12.2018 06:00:00 4,5 2,9 29 16 52 28 S 988,8 21 0,0
09.12.2018 05:00:00 4,7 3,1 26 14 47 25 S 988,9 22 0,0
09.12.2018 04:00:00 4,7 3,2 27 15 49 27 S 989,1 21 0,1
09.12.2018 03:00:00 4,8 3,2 25 14 48 26 S 989,3 21 0,0
09.12.2018 02:00:00 4,9 3,3 24 13 42 23 S 989,5 19 0,0
09.12.2018 01:00:00 4,8 3,4 24 13 42 23 S 989,6 17 0,0
09.12.2018 00:00:00 4,8 3,5 21 12 39 21 S 989,8 16 0,0
08.12.2018 23:00:00 5,0 4,1 24 13 44 24 SSW 989,5 17 0,0
08.12.2018 22:00:00 4,9 4,4 22 12 42 23 SSW 988,9 20 0,0
08.12.2018 21:00:00 4,1 3,8 22 12 38 20 S 988,7 8 0,5
08.12.2018 20:00:00 3,0 2,6 18 10 39 21 S 988,6 6 2,2
08.12.2018 19:00:00 2,1 1,5 23 12 40 22 SSE 989,3 4,8 1,8
08.12.2018 18:00:00 1,8 1,1 22 12 41 22 SSE 989,8 6 1,7
08.12.2018 17:00:00 1,6 0,8 23 12 44 24 SSE 990,4 5 2,5
08.12.2018 16:00:00 1,7 1,0 24 13 46 25 SSE 990,7 4,6 2,7
08.12.2018 15:00:00 2,1 1,4 23 12 40 22 SSE 991,3 4,5 0,6
08.12.2018 14:00:00 2,3 1,8 22 12 37 20 SSE 991,8 6 2,1
08.12.2018 13:00:00 2,4 2,0 22 12 36 20 SSE 992,2 2,9 1,8
08.12.2018 12:00:00 2,0 1,7 19 11 36 19 SE 992,8 2,2 0,7
08.12.2018 11:00:00 2,0 1,5 18 10 39 21 SSE 993,6 7 0,1
08.12.2018 10:00:00 1,7 1,3 20 11 34 18 SE 994,0 6 0,2
08.12.2018 09:00:00 1,3 0,9 16 9 31 17 SE 994,5 6 0,1
08.12.2018 08:00:00 1,1 0,7 17 9 30 16 SSE 995,1 8 0,1
08.12.2018 07:00:00 1,0 0,5 17 9 30 16 SSE 995,5 6 0,0
08.12.2018 06:00:00 0,9 0,5 17 9 29 16 SSE 995,9 3,7 0,2
08.12.2018 05:00:00 0,8 0,4 15 8 29 16 SSE 996,2 4,6 0,2
08.12.2018 04:00:00 0,5 0,0 16 9 30 16 SSE 996,8 3,4 0,3
08.12.2018 03:00:00 0,6 -0,6 18 10 35 19 SSE 997,6 17 0,0
08.12.2018 02:00:00 0,6 -0,7 19 10 32 17 SSE 997,8 27 0,1
08.12.2018 01:00:00 0,3 -0,7 18 10 33 18 SSE 998,2 4,8 0,1
08.12.2018 00:00:00 0,2 -0,8 18 10 35 19 SSE 999,1 6 0,2
07.12.2018 23:00:00 -0,1 -0,9 19 10 31 17 SSE 999,6 2,1 0,2
07.12.2018 22:00:00 0,0 -0,9 16 9 34 18 SSE 1000,1 2,9 0,2
07.12.2018 21:00:00 0,3 -1,8 18 10 36 20 SSE 1000,7 23 0,0
07.12.2018 20:00:00 0,2 -1,6 19 10 37 20 SSE 1001,1 11 0,1
07.12.2018 19:00:00 0,4 -2,0 23 12 39 21 SSE 1001,8 32 0,0
07.12.2018 18:00:00 0,3 -1,0 18 10 40 21 SSE 1002,6 9 0,2
07.12.2018 17:00:00 0,1 -0,8 22 12 39 21 SSE 1003,0 1,7 0,3
07.12.2018 16:00:00 0,2 -0,8 23 13 42 23 SSE 1003,9 2,4 0,7
07.12.2018 15:00:00 0,6 -1,1 23 12 47 25 S 1004,8 2,2 0,2
07.12.2018 14:00:00 1,4 -1,4 24 13 41 22 SSE 1005,0 30 0,0
07.12.2018 13:00:00 1,3 -1,2 19 11 37 20 SSE 1005,7 39 0,0
07.12.2018 12:00:00 1,3 -1,6 19 10 40 22 SSE 1006,7 41 0,0
07.12.2018 11:00:00 1,3 -1,4 19 10 38 20 SSE 1007,5 37 0,0

tt = temperature
td = dewpoint
ff = wind speed
fx = gusts
dd = wind direction
ppp = reduced air pressure
vv = visibility
rr = precipitation

Next stations